SL-8 DEB *, 14810

Orbit data source: Space-Track

SL-8 DEB *, 14810 is space debris in LEO originally from a launch on Fri, 28 Aug 1981 UTC launched from the Plesetsk Missile And Space Complex (PKMTR). Debris objects in space refer to the collection of defunct objects orbiting the Earth. Examples of debris include non-operational satellites, rocket bodies, and fragments generated from explosions, collisions, or faulty payload assembly.

Loading next visibility...
Identifier
14810, 1981-084D
Orbit
LEO
Country
Flag of CISCIS
Related business
Manufacturer
Unknown
Mission
Spacecraft
Bus & Motor
Unknown
Mass
Unknown
Launch date (UTC)
1981-08-28 (45 years ago)
Launch vehicle
Unknown
Launch site
Plesetsk Missile And Space Complex (PKMTR)
Object type
Payload
Rocket body
Debris
Shape & HBR
Unknown shape, 0.1 m
Radar Cross Section
Medium (>0.1 m² and <1 m²)

Expand to show TLE details & history
Last TLE update: 7 hours ago

TLE from 7 hours ago
0 SL-8 DEB *
1 14810U 81084D   26178.52407667  .00001107  00000-0  26439-3 0  9992
2 14810  73.9484 205.2807 0016503 337.0423 174.0994 14.54835702271544
Epoch: 2026-06-27T12:34Z
TLE epoch observation values (Epoch: 2026-06-27T12:34:40.224Z)
Latitude
27.66424°
Longitude
-87.65195°
Altitude
724.628 km
Speed
7.49 km/s
True Right ascension
01h 06m 36s
True Declination
27° 31' 21"
Sunlit
Object was in daylight at epoch
Visualization orbit readout
Latitude
Unknown
Longitude
Unknown
Altitude
Unknown
Speed
Unknown
Apparent Right ascension
Unknown
Apparent Declination
Unknown
Sunlit
N/A
Visualization observer readout
Local Sidereal Time
07:15:27
Azimuth
Unknown
Elevation
Unknown
Doppler factor
Unknown
Orbital elements
Apogee altitude
719.203 km
Perigee altitude
695.816 km
Semi-major axis
7,085.646 km
Eccentricity
0.00165
Inclination
73.9484°
RAAN
205.2807°
Arg. of periapsis
337.0423°
True anomaly
174.1188°
Mean anomaly
174.0994°
Eccentric anomaly
174.1091°
Mean motion
3.63893 °/min
Orbital period
98.93 mins
BSTAR
0.00026439
Loading maneuver chart data...
Computing Atmospheric mass density...
Loading historical data...
Loading historical data...
Loading historical data...
Loading historical data...
Loading historical data...
Loading historical data...
Loading historical data...
Other satellites on launch #84 in the year 1981 (1981-08-28 UTC)

Documentation

Showing up to 5 results
|